Location: Newark
(43.0000°N, 1.6781°W)
Time: 09:15:45
(UTC+00:00)

AO-85 - Visible Passes

Search period start: 27 November 2022 00:00
Search period end: 07 December 2022 00:00
Orbit: 513 x 757 km, 64.8° (Epoch: 24 November)

Date Brightness Start Highest point End Pass type
(mag) Time Alt. Az. Time Alt. Az. Time Alt. Az.
27 Nov ? 18:13:23 10° W 18:17:08 23° NW 18:20:40 10° N visible
28 Nov ? 18:37:49 10° WNW 18:40:00 13° NW 18:42:06 10° N visible
29 Nov ? 17:17:16 10° WSW 17:21:36 34° NW 17:25:39 10° NNE visible
30 Nov ? 17:41:03 10° W 17:44:19 19° NW 17:47:26 10° N visible
01 Dec ? 18:06:24 10° NW 18:07:14 10° NNW 18:08:04 10° NNW visible
03 Dec ? 17:08:53 10° WNW 17:11:29 15° NW 17:14:00 10° N visible
